DW4657 Weather Reports


Display with metric or nautical units.
time (UTC)temp
F
wind
direction
speed
MPH
gust
MPH
rain 1hr
in
rain 24hr
in
rain mn
in
humidity
%
barometer
mb
20260503214542 53 302 4.0 8.0 0.00 0.00 0.00 41 1006.4
20260503214019 53 98 3.0 12.0 0.00 0.00 0.00 41 1006.4
20260503213519 53 249 2.0 12.0 0.00 0.00 0.00 43 1006.2
20260503213038 53 221 3.0 9.0 0.00 0.00 0.00 41 1006.1
20260503212522 53 321 3.0 9.0 0.00 0.00 0.00 40 1006.1
20260503212019 54 358 2.0 9.0 0.00 0.00 0.00 41 1006.1
20260503211543 54 26 4.0 8.0 0.00 0.00 0.00 41 1006.0
20260503211020 54 55 2.0 4.0 0.00 0.00 0.00 43 1005.9
20260503210519 54 330 1.0 9.0 0.00 0.00 0.00 43 1005.8
20260503210035 54 311 3.0 9.0 0.00 0.00 0.00 43 1005.7
20260503205519 54 280 3.0 7.0 0.00 0.00 0.00 43 1005.8
20260503205020 54 292 2.0 7.0 0.00 0.00 0.00 45 1005.6
20260503204537 53 63 3.0 8.0 0.00 0.00 0.00 44 1005.5
20260503204022 53 276 4.0 8.0 0.00 0.00 0.00 45 1005.8
20260503203521 54 50 3.0 6.0 0.00 0.00 0.00 45 1005.5
20260503203045 54 336 3.0 6.0 0.00 0.00 0.00 43 1005.5
20260503202520 54 43 1.0 7.0 0.00 0.00 0.00 45 1005.6
20260503202020 53 5 2.0 8.0 0.00 0.00 0.00 45 1005.6
20260503201539 53 306 3.0 8.0 0.00 0.00 0.00 44 1005.4
20260503201023 53 285 2.0 8.0 0.00 0.00 0.00 46 1005.6
20260503200521 53 297 3.0 8.0 0.00 0.00 0.00 46 1005.5
20260503200052 53 18 2.0 6.0 0.00 0.00 0.00 47 1005.3
20260503195519 53 309 2.0 6.0 0.00 0.00 0.00 48 1005.4
20260503195020 53 260 2.0 5.0 0.00 0.00 0.00 48 1005.4
20260503194537 53 257 2.0 5.0 0.00 0.00 0.00 49 1005.4
20260503194019 53 320 2.0 6.0 0.00 0.00 0.00 49 1005.4
20260503193519 52 283 3.0 8.0 0.00 0.00 0.00 50 1005.5
20260503193040 52 36 3.0 8.0 0.00 0.00 0.00 50 1005.4
20260503192520 52 315 2.0 5.0 0.00 0.00 0.00 51 1005.5
20260503192019 52 46 2.0 9.0 0.00 0.00 0.00 50 1005.5
20260503191543 52 281 3.0 9.0 0.00 0.00 0.00 50 1005.6
20260503191019 53 300 2.0 12.0 0.00 0.00 0.00 50 1005.7
20260503190519 53 300 2.0 12.0 0.00 0.00 0.00 49 1005.5
20260503190041 53 34 2.0 9.0 0.00 0.00 0.00 50 1005.6
20260503185519 52 58 3.0 6.0 0.00 0.00 0.00 50 1005.6
20260503185024 52 44 1.0 6.0 0.00 0.00 0.00 52 1005.6
20260503184549 52 258 2.0 5.0 0.00 0.00 0.00 54 1005.6
20260503184020 51 291 2.0 6.0 0.00 0.00 0.00 53 1005.6
20260503183519 51 360 3.0 6.0 0.00 0.00 0.00 52 1005.7
20260503183042 51 304 1.0 7.0 0.00 0.00 0.00 53 1005.7
20260503182523 51 292 1.0 7.0 0.00 0.00 0.00 53 1005.7
20260503182023 51 312 3.0 7.0 0.00 0.00 0.00 52 1005.6
20260503181545 52 356 3.0 7.0 0.00 0.00 0.00 52 1005.5
20260503181019 52 265 2.0 8.0 0.00 0.00 0.00 52 1005.4
20260503180521 53 359 3.0 8.0 0.00 0.00 0.00 51 1005.5
20260503180048 53 323 3.0 10.0 0.00 0.00 0.00 52 1005.5
20260503175518 52 307 3.0 10.0 0.00 0.00 0.00 53 1005.4
20260503175018 52 29 3.0 9.0 0.00 0.00 0.00 53 1005.6
20260503174546 51 306 2.0 9.0 0.00 0.00 0.00 57 1005.5
20260503174020 51 349 3.0 9.0 0.00 0.00 0.00 57 1005.5
20260503173519 50 14 0.0 7.0 0.00 0.00 0.00 60 1005.6
20260503173052 50 344 3.0 7.0 0.00 0.00 0.00 59 1005.5
20260503172519 50 351 2.0 9.0 0.00 0.00 0.00 60 1005.6
20260503172022 49 8 3.0 9.0 0.00 0.00 0.00 61 1005.6
20260503171535 49 286 2.0 7.0 0.00 0.00 0.00 61 1005.6
20260503171019 49 290 2.0 8.0 0.00 0.00 0.00 61 1005.6
20260503170521 49 1 3.0 9.0 0.00 0.00 0.00 62 1005.7
20260503150521 46 313 2.0 6.0 0.00 0.00 0.00 75 1005.5
20260503131018 46 293 4.0 8.0 0.00 0.00 0.00 74 1005.4
20260503130520 47 352 2.0 6.0 0.00 0.00 0.00 74 1005.3
20260503110520 44 325 0.0 3.0 0.00 0.00 0.00 77 1006.5
20260503081540 46 3 0.0 3.0 0.00 0.00 0.00 77 1006.7
20260503081019 46 5 1.0 3.0 0.00 0.00 0.00 77 1006.9
20260503080519 46 41 0.0 2.0 0.00 0.00 0.00 77 1007.0
20260503072521 47 6 2.0 4.0 0.00 0.00 0.00 75 1007.3
20260503072020 47 14 1.0 4.0 0.00 0.00 0.00 75 1007.6
20260503071542 47 352 1.0 3.0 0.00 0.00 0.00 75 1007.5
20260503071019 47 8 1.0 4.0 0.00 0.00 0.00 75 1007.5
20260503070519 47 33 1.0 4.0 0.00 0.00 0.00 75 1007.7
20260503055018 48 310 0.0 7.0 0.00 0.00 0.00 72 1008.6
20260503054537 48 319 1.0 7.0 0.00 0.00 0.00 72 1008.7
20260503054019 48 273 1.0 5.0 0.00 0.00 0.00 74 1008.8
20260503053521 48 0 2.0 6.0 0.00 0.00 0.00 76 1008.7
20260503053037 48 266 1.0 6.0 0.00 0.00 0.00 78 1008.6
20260503052519 48 310 1.0 3.0 0.00 0.00 0.00 80 1008.6
20260503052017 48 0 0.0 1.0 0.00 0.00 0.00 83 1008.7
20260503051538 48 0 0.0 1.0 0.00 0.00 0.00 84 1008.8
20260503051022 48 343 0.0 1.0 0.00 0.00 0.00 86 1008.7
20260503050519 48 0 0.0 0.0 0.00 0.00 0.00 88 1008.9
20260503050036 48 0 0.0 0.0 0.00 0.00 0.00 89 1009.0
20260503045521 48 0 0.0 0.0 0.00 0.00 0.00 89 1009.1
20260503045018 48 0 0.0 0.0 0.00 0.00 0.00 89 1009.0
20260503044543 48 0 0.0 0.0 0.00 0.00 0.00 89 1009.2
20260503044018 48 0 0.0 0.0 0.00 0.00 0.00 89 1009.1
20260503043518 48 0 0.0 0.0 0.00 0.00 0.00 89 1009.2
20260503043038 48 0 0.0 0.0 0.00 0.00 0.00 89 1009.2
20260503042521 48 0 0.0 0.0 0.00 0.00 0.00 89 1009.3
20260503042018 48 0 0.0 0.0 0.00 0.00 0.00 89 1009.4
20260503041537 48 0 0.0 0.0 0.00 0.00 0.00 89 1009.7
20260503041021 48 0 0.0 0.0 0.00 0.00 0.00 89 1009.9
20260503040518 48 0 0.0 0.0 0.00 0.00 0.00 89 1009.8
20260503040037 48 0 0.0 0.0 0.00 0.00 0.00 88 1009.7
20260503035519 49 0 0.0 0.0 0.00 0.00 0.00 89 1009.8
20260503035022 48 0 0.0 0.0 0.00 0.00 0.00 89 1009.7
20260503034533 48 0 0.0 0.0 0.00 0.00 0.00 89 1009.7
20260503034019 48 0 0.0 0.0 0.00 0.00 0.00 89 1009.8
20260503033520 48 0 0.0 0.0 0.00 0.00 0.00 89 1009.7
20260503033038 48 0 0.0 0.0 0.00 0.00 0.00 89 1009.9
20260503032519 48 0 0.0 0.0 0.00 0.00 0.00 89 1009.9
20260503032021 48 0 0.0 0.0 0.00 0.00 0.00 88 1009.8
20260503031541 48 0 0.0 0.0 0.00 0.00 0.00 88 1009.8
20260503031019 48 0 0.0 0.0 0.00 0.00 0.00 88 1009.8
20260503030519 48 0 0.0 0.0 0.00 0.00 0.00 88 1009.8
20260503030054 49 0 0.0 0.0 0.00 0.00 0.00 88 1009.8
20260503025518 49 0 0.0 0.0 0.00 0.00 0.00 88 1010.0
20260503025019 49 0 0.0 0.0 0.00 0.00 0.00 87 1009.9
20260503024541 49 0 0.0 0.0 0.00 0.00 0.00 87 1010.0
20260503024018 49 0 0.0 0.0 0.00 0.00 0.00 87 1010.1
20260503023519 49 0 0.0 0.0 0.00 0.00 0.00 87 1010.1
20260503023037 49 0 0.0 0.0 0.00 0.00 0.00 87 1010.0
20260503022518 49 0 0.0 0.0 0.00 0.00 0.00 86 1009.9
20260503022018 50 0 0.0 0.0 0.00 0.00 0.00 86 1010.0
20260503021539 50 0 0.0 0.0 0.00 0.00 0.00 86 1010.0
20260503021019 50 0 0.0 0.0 0.00 0.00 0.00 86 1010.1
20260503020518 50 0 0.0 0.0 0.00 0.00 0.00 86 1010.1
20260503020032 49 0 0.0 1.0 0.00 0.00 0.00 86 1010.2
20260503015519 49 0 0.0 2.0 0.00 0.00 0.00 86 1010.4
20260503015020 49 219 0.0 2.0 0.00 0.00 0.00 85 1010.4
20260503014552 50 0 0.0 1.0 0.00 0.00 0.00 85 1010.4
20260503014018 50 212 0.0 2.0 0.00 0.00 0.00 85 1010.4
20260503013519 50 0 1.0 2.0 0.00 0.00 0.00 84 1010.4
20260503013038 50 81 0.0 2.0 0.00 0.00 0.00 84 1010.3
20260503012518 50 79 0.0 2.0 0.00 0.00 0.00 84 1010.4
20260503012019 50 0 0.0 3.0 0.00 0.00 0.00 83 1010.4
20260503011547 50 144 0.0 3.0 0.00 0.00 0.00 83 1010.4
20260503011018 50 110 0.0 1.0 0.00 0.00 0.00 83 1010.4
20260503010518 50 0 0.0 2.0 0.00 0.00 0.00 83 1010.4
20260503010037 50 120 0.0 3.0 0.00 0.00 0.00 83 1010.5
20260503005519 50 0 0.0 3.0 0.00 0.00 0.00 83 1010.3
20260503005018 50 209 1.0 3.0 0.00 0.00 0.00 83 1010.4
20260503004558 50 136 0.0 1.0 0.00 0.00 0.00 82 1010.3
20260503004020 50 176 0.0 3.0 0.00 0.00 0.00 82 1010.2
20260503003519 50 0 0.0 3.0 0.00 0.00 0.00 82 1010.2
20260503003032 50 0 0.0 2.0 0.00 0.00 0.00 82 1010.1
20260503002519 50 0 0.0 2.0 0.00 0.00 0.00 82 1010.2
20260503002019 50 141 1.0 2.0 0.00 0.00 0.00 82 1010.1
20260503001538 50 141 0.0 2.0 0.00 0.00 0.00 82 1010.1
20260503001019 51 88 0.0 1.0 0.00 0.00 0.00 82 1010.2
20260503000519 51 0 0.0 1.0 0.00 0.00 0.00 82 1010.2
20260503000040 50 188 0.0 1.0 0.00 0.00 0.00 82 1010.2
20260502235518 50 0 0.0 2.0 0.00 0.00 0.00 82 1010.1
20260502235018 50 0 0.0 4.0 0.00 0.00 0.00 82 1010.3
20260502234537 51 281 1.0 4.0 0.00 0.00 0.00 81 1010.2
20260502234022 51 269 1.0 4.0 0.00 0.00 0.00 81 1010.2
20260502233520 51 235 2.0 4.0 0.00 0.00 0.00 81 1010.2
20260502233037 51 0 1.0 3.0 0.00 0.00 0.00 81 1010.2
20260502232519 51 188 1.0 3.0 0.00 0.00 0.00 81 1010.1
20260502232019 51 223 0.0 3.0 0.00 0.00 0.00 81 1010.1
20260502231535 51 215 1.0 3.0 0.00 0.00 0.00 81 1010.2
20260502231019 51 198 1.0 5.0 0.00 0.00 0.00 81 1010.2
20260502230519 51 161 1.0 5.0 0.00 0.00 0.00 81 1010.3
20260502230035 51 217 1.0 9.0 0.00 0.00 0.00 81 1010.3
20260502225518 51 264 2.0 9.0 0.00 0.00 0.00 81 1010.4
20260502225018 51 235 2.0 7.0 0.00 0.00 0.00 81 1010.2
20260502224535 51 214 0.0 5.0 0.00 0.00 0.00 81 1010.2
20260502224020 51 211 2.0 5.0 0.00 0.00 0.00 80 1010.2
20260502223520 51 234 1.0 4.0 0.00 0.00 0.00 80 1010.1
20260502223038 51 226 1.0 4.0 0.00 0.00 0.00 80 1010.0
20260502222519 51 227 1.0 5.0 0.00 0.00 0.00 80 1010.0
20260502222019 51 217 2.0 5.0 0.00 0.00 0.00 79 1009.9
20260502221537 52 227 1.0 5.0 0.00 0.00 0.00 79 1010.0
20260502221019 52 217 1.0 5.0 0.00 0.00 0.00 79 1010.0
20260502220518 52 243 2.0 5.0 0.00 0.00 0.00 78 1010.0
20260502220041 52 224 2.0 5.0 0.00 0.00 0.00 78 1010.0
20260502215520 52 238 2.0 5.0 0.00 0.00 0.00 77 1009.9
20260502215019 52 162 2.0 6.0 0.00 0.00 0.00 78 1009.9